Pittsburgh, PA

11:55 AM EST on December 12, 2019 (GMT -0500)
Pittsburgh International

Weather History for KPIT - October, 2019

Change the Weather History Date:

Wednesday, October 30, 2019

  Actual Average Record
Temperature  
Mean Temperature 54 °F 48 °F  
Max Temperature 63 °F 58 °F 82 °F (1900)
Min Temperature 46 °F 39 °F 24 °F (1965)
Degree Days  
Heating Degree Days 10 17  
Month to date heating degree days 290 372  
Since 1 July heating degree days 298 486  
Cooling Degree Days 0 0  
Month to date cooling degree days 37 6  
Year to date cooling degree days 934 734  
Growing Degree Days 4 (Base 50)    
Moisture  
Dew Point 51 °F    
Average Humidity 89    
Maximum Humidity 100    
Minimum Humidity 67    
Precipitation  
Precipitation 0.60 in 0.08 in 1.81 in (1970)
Month to date precipitation 5.22 2.20  
Year to date precipitation 45.31 32.02  
Snow  
Snow 0.00 in 0.10 in 2.00 in (1925)
Month to date snowfall 0.0 0.4  
Snow Depth 0.00 in    
Sea Level Pressure  
Sea Level Pressure 30.11 in    
Wind  
Wind Speed 3 mph ()    
Max Wind Speed 10 mph    
Max Gust Speed 16 mph    
Visibility 7.0 miles    
Events Rain    
T = Trace of Precipitation, MM = Missing Value Source: Averaged Metar Reports

Daily Weather History Graph

Daily Weather History Graph

Search for Another Location

Airport or City:

Astronomy

Oct. 30, 2019 Rise Set
Actual Time 7:48 AM EDT 6:20 PM EDT
Civil Twilight 7:20 AM EDT 6:48 PM EDT
Nautical Twilight 6:47 AM EDT 7:20 PM EDT
Astronomical Twilight 6:16 AM EDT 7:52 PM EDT
Moon 10:30 AM EDT (10/30) 8:26 PM EDT (10/30)
Length of Visible Light 11h 28m
Length of Day
10h 32m
Waxing Crescent, 8% of the Moon is Illuminated
Oct 30
Waxing Crescent
Nov 4
First Quarter
Nov 12
Full
Nov 19
Last Quarter
Nov 26
New

Hourly Weather History & Observations

Time (EDT) Temp. Dew Point Humidity Pressure Visibility Wind Dir Wind Speed Gust Speed Precip Events Conditions
12:51 AM 51.1 °F 46.9 °F 86% 30.24 in 10.0 mi Calm Calm - N/A   Mostly Cloudy
1:51 AM 50.0 °F 46.9 °F 89% 30.24 in 10.0 mi South 3.5 mph - N/A   Overcast
2:51 AM 48.9 °F 46.0 °F 90% 30.22 in 9.0 mi Calm Calm - N/A   Mostly Cloudy
3:51 AM 46.9 °F 45.0 °F 93% 30.22 in 10.0 mi Calm Calm - N/A   Mostly Cloudy
4:51 AM 48.0 °F 46.0 °F 93% 30.22 in 8.0 mi NW 3.5 mph - N/A   Mostly Cloudy
5:51 AM 50.0 °F 46.9 °F 89% 30.23 in 8.0 mi NNE 3.5 mph - N/A   Mostly Cloudy
6:51 AM 48.0 °F 46.0 °F 93% 30.23 in 7.0 mi Calm Calm - N/A   Overcast
7:51 AM 50.0 °F 46.9 °F 89% 30.22 in 7.0 mi NNE 4.6 mph - N/A   Overcast
8:51 AM 50.0 °F 46.9 °F 89% 30.24 in 6.0 mi North 5.8 mph - N/A   Overcast
9:51 AM 52.0 °F 48.0 °F 86% 30.23 in 8.0 mi NE 8.1 mph - N/A   Overcast
10:51 AM 54.0 °F 48.9 °F 83% 30.19 in 10.0 mi East 6.9 mph - N/A   Overcast
11:51 AM 57.9 °F 51.1 °F 78% 30.20 in 10.0 mi ENE 6.9 mph - N/A   Overcast
12:51 PM 60.1 °F 52.0 °F 75% 30.15 in 10.0 mi East 8.1 mph - N/A   Overcast
1:51 PM 61.0 °F 52.0 °F 72% 30.12 in 10.0 mi East 6.9 mph - N/A   Overcast
3:51 PM 63.0 °F 52.0 °F 67% 30.07 in 10.0 mi SSE 6.9 mph - N/A   Overcast
5:51 PM 60.1 °F 55.0 °F 83% 30.04 in 9.0 mi Calm Calm - 0.01 in Rain Light Rain
6:51 PM 59.0 °F 55.9 °F 90% 30.03 in 8.0 mi East 4.6 mph - 0.03 in Rain Light Rain
7:51 PM 57.9 °F 55.9 °F 93% 30.01 in 7.0 mi East 4.6 mph - 0.02 in Rain Light Rain
8:51 PM 57.9 °F 57.0 °F 97% 30.00 in 4.0 mi Calm Calm - 0.07 in Rain Light Rain
9:11 PM 57.9 °F 55.9 °F 93% 29.95 in 3.0 mi East 9.2 mph - 0.05 in Rain Rain
9:35 PM 57.9 °F 57.0 °F 97% 29.94 in 2.0 mi East 6.9 mph - 0.12 in Rain Rain
9:51 PM 57.9 °F 57.0 °F 97% 29.96 in 3.0 mi East 5.8 mph - 0.20 in Rain Light Rain
10:39 PM 57.9 °F 57.0 °F 97% 29.92 in 2.0 mi East 5.8 mph - 0.17 in Rain Light Rain
10:51 PM 57.9 °F 57.0 °F 97% 29.94 in 2.0 mi ESE 5.8 mph - 0.20 in Rain Light Rain
11:51 PM 57.9 °F 57.9 °F 100% 29.91 in 2.0 mi East 4.6 mph - 0.05 in Rain Light Rain